Location: Brahman Valley
(40.6513°N, 111.8855°W)
Time: 21:13:07
(UTC+00:00)

Vanguard 2 - Pass Details

Date: 21 May 2021
Orbit: 552 x 2937 km, 32.9° (Epoch: 14 June)

Event Time Altitude Azimuth Distance (km) Brightness Sun altitude
Rises 10:04:10 0° 223° (SW) 3,176 - -18.6°
Reaches altitude 10° 10:06:29 10° 211° (SSW) 2,457 - -18.3°
Exits shadow 10:09:01 23° 188° (S) 1,923 9.1 -18.0°
Maximum altitude 10:11:33 30° 151° (SSE) 1,860 9.3 -17.7°
Drops below altitude 10° 10:19:06 10° 95° (E) 3,755 11.5 -16.8°
Sets 10:23:34 0° 87° (E) 5,189 12.5 -16.2°
